Regional Weather Roundup
Issued by NWS Raleigh/Durham, NC

Home | Current Version | Previous Version | Text Only | Print | Product List | Glossary On
Versions: 1 2 3 4 5 6 7 8 9 10 11 12 13 14 15 16 17 18 19 20 21 22 23 24 25 26 27 28
000
ASUS42 KRAH 270410
RWRRAH
NORTH CAROLINA WEATHER ROUNDUP
NATIONAL WEATHER SERVICE RALEIGH NC
1200 AM EDT WED JUL 27 2016

NOTE: "FAIR" INDICATES FEW OR NO CLOUDS BELOW 12,000 FEET WITH NO
SIGNIFICANT WEATHER AND/OR OBSTRUCTIONS TO VISIBILITY.

NCZ001-053-055-056-065-067-270500-
WESTERN NORTH CAROLINA

CITY           SKY/WX    TMP DP  RH WIND       PRES   REMARKS
ASHEVILLE      CLOUDY    75  69  81 CALM      30.12S
JEFFERSON      DRIZZLE   74  68  83 CALM      30.17R
MORGANTON      PTCLDY    73  72  96 CALM      30.08S
HICKORY        PTCLDY    77  73  87 CALM      30.03S
RUTHERFORDTON    N/A     75  75 100 CALM      30.05S
MOUNT AIRY     PTCLDY    79  76  89 CALM      30.05R
BOONE          DRIZZLE   73  65  75 W5        30.17S
$$

NCZ021-022-025-041-071-084-088-270500-
CENTRAL NORTH CAROLINA

CITY           SKY/WX    TMP DP  RH WIND       PRES   REMARKS
CHARLOTTE      MOCLDY    82  72  71 SW3       30.01S
GREENSBORO     MOCLDY    82  75  79 SW3       30.01R
WINSTON-SALEM  PTCLDY    82  73  74 CALM      30.03R
RALEIGH-DURHAM CLOUDY    77  75  93 CALM      29.98F
FORT BRAGG     CLOUDY    85  74  68 SW7       29.98R
FAYETTEVILLE   CLOUDY    84  76  76 S6        29.98S
BURLINGTON     CLOUDY    79  74  84 CALM      30.00R
LAURINBURG     CLEAR     83  75  77 SW7       29.99S
$$

NCZ011-015-027-028-043-044-047-080-103-270500-
NORTHEASTERN NORTH CAROLINA

CITY           SKY/WX    TMP DP  RH WIND       PRES   REMARKS
ROCKY MT-WILSO CLOUDY    81  78  91 CALM      29.98R
GREENVILLE     CLOUDY    82  79  89 W6        30.00R
WASHINGTON     CLEAR     82  75  78 SW7       29.97S
ELIZABETH CITY CLOUDY    77  75  93 S3        29.96S
MANTEO         NOT AVBL
CAPE HATTERAS  CLOUDY    83  77  82 W12       29.98R
$$

NCZ078-087-090-091-093-098-101-270500-
SOUTHEASTERN NORTH CAROLINA

CITY           SKY/WX    TMP DP  RH WIND       PRES   REMARKS
LUMBERTON      CLEAR     82  76  81 S5        29.99R
GOLDSBORO      CLOUDY    83  79  87 SW5       29.97R HX  95
KINSTON        CLOUDY    82  74  76 SW6       29.99R
KENANSVILLE    NOT AVBL
NEW BERN       CLEAR     79  74  84 SW6       30.00R
CHERRY POINT   CLEAR     80  76  87 SW8       30.00R
BEAUFORT       CLOUDY    83  78  85 SW12      30.00R
JACKSONVILLE   CLEAR     79  74  84 SW7       29.99R
WILMINGTON     CLEAR     81  76  84 SW7       30.01R
$$





USA.gov is the U.S. government's official web portal to all federal, state and local government web resources and services.